Regional Weather Roundup
Issued by NWS

Home | Current Version | Previous Version | Graphics & Text | Print | Product List | Glossary On
Versions: 1 2 3 4 5 6 7 8 9 10 11 12 13 14 15 16 17 18 19 20 21 22 23 24 25 26 27 28 29 30 31 32 33 34 35 36 37 38 39 40 41 42 43 44 45 46 47 48 49 50
000
ASUS45 KBOU 061007
RWRCO

WEATHER ROUNDUP FOR COLORADO
NATIONAL WEATHER SERVICE DENVER/BOULDER CO
300 AM MST FRI MAR 06 2015

NOTE: "FAIR" INDICATES FEW OR NO CLOUDS BELOW 12000 FEET WITH NO
SIGNIFICANT WEATHER AND/OR OBSTRUCTIONS TO VISIBILITY.

COZ001>005-013-030-031-061100-
...NORTHWEST COLORADO...

CITY           SKY/WX    TMP DP  RH WIND       PRES   REMARKS
CRAIG          CLEAR     13   8  81 CALM      30.41F
HAYDEN         CLEAR     12   5  73 E10       30.39F WCI  -1
MEEKER         PTCLDY    22  14  71 NE6       30.41S WCI  14
MOUNT WERNER   NOT AVBL
STEAMBOAT SPGS CLEAR     11   8  87 CALM      30.40F
WALDEN         PTCLDY    21   9  58 SW8G17    30.32S WCI  12
$$

COZ006>008-011-061100-
...WEST CENTRAL VALLEYS...

CITY           SKY/WX    TMP DP  RH WIND       PRES   REMARKS
GRAND JUNCTION CLEAR     25  19  78 SE7       30.42S WCI  17
MONTROSE       CLEAR     25  15  66 SE8       30.44F WCI  16
EAGLE          PTCLDY    18  14  86 CALM      30.45S
RIFLE          PTCLDY    23  17  78 S3        30.44F
DELTA          CLEAR     28  19  71 NE5       30.43F WCI  22
NUCLA          CLEAR     25  14  63 E6        30.44S WCI  18
$$

COZ017>023-064>068-061100-
...SOUTHWEST COLORADO...

CITY           SKY/WX    TMP DP  RH WIND       PRES   REMARKS
DURANGO        CLEAR     20  13  74 N6        30.37F WCI  12
CORTEZ         CLEAR     23  17  78 E3        30.39S
PAGOSA SPRINGS CLEAR     13   7  75 CALM      30.37F
TELLURIDE      PTCLDY    20   5  52 SE7       30.40S WCI  11
WOLF CREEK PAS PTCLDY    19  -6  32 W5        30.41S WCI  13
$$

COZ009-010-012-014-032>034-037-058>063-061100-
...CENTRAL COLORADO...

CITY           SKY/WX    TMP DP  RH WIND       PRES   REMARKS
ASPEN          CLEAR      9   2  73 S6        30.39F WCI  -1
BUENA VISTA    CLEAR     14   4  65 SW5       30.34S WCI   6
COPPER MTN     CLEAR     18  -2  41 W25G31    30.32F WCI  -1
BERTHOUD PASS  NOT AVBL
COTTONWOOD PAS CLEAR     28  -6  22 N6        30.31S WCI  22
GUNNISON       PTCLDY     1  -4  78 CALM      30.46F
KREMMLING      PTCLDY     9   3  78 CALM      30.42S
LEADVILLE      CLEAR      5  -5  63 NE6       30.33S WCI  -6
SALIDA         CLEAR     26   6  41 NW10G16   30.40F WCI  17
SUNLIGHT       CLEAR     19  12  73 CALM        N/A
WILKERSON PASS PTCLDY    18  -4  38 W9G17     30.31F WCI   6
$$

COZ069>075-061100-
...SAN LUIS VALLEY/SANGRE DE CRISTO MOUNTAINS...

CITY           SKY/WX    TMP DP  RH WIND       PRES   REMARKS
ALAMOSA        PTCLDY    15  10  80 CALM      30.38S
LA VETA PASS   PTCLDY    19   3  49 MISG      30.30F
SAGUACHE       PTCLDY    21  10  63 NW14      30.38F WCI   8
$$

COZ035-036-038>040-061100-
...NORTHERN COLORADO FRONT RANGE...

CITY           SKY/WX    TMP DP  RH WIND       PRES   REMARKS
DENVER INTL AP MOCLDY    29  12  49 SW12      30.22F WCI  19
DMNS CITY PARK   N/A     26  14  60 SE6       30.24S WCI  19
AURORA         MOCLDY    27  10  47 S10       30.23F WCI  17
FRONT RANGE AP PTCLDY    25  14  63 S10       30.23F WCI  15
ERIE MUNI ARPT PTCLDY    16  13  85 CALM      30.24F
BOULDER MUN AP PTCLDY    23  14  68 CALM      30.23F
CENTENNIAL     PTCLDY    23  10  57 S8        30.23S WCI  14
BROOMFIELD     PTCLDY    28  12  50 NW8       30.23S WCI  20
FORT COLLINS   PTCLDY    21  10  63 S7        30.25S WCI  13
LONGMONT       PTCLDY    19  13  77 SW6       30.26F WCI  11
$$

COZ041-046-047-076>085-087-088-061100-
...PIKES PEAK/PALMER DIVIDE AND SOUTHERN FOOTHILLS...

CITY           SKY/WX    TMP DP  RH WIND       PRES   REMARKS
COLO. SPRINGS  CLEAR     23  10  57 N9        30.25F WCI  13
A. F. ACADEMY  CLEAR     19   6  56 N5        30.24F WCI  12
ELLICOTT       NOT AVBL
FALCON         CLEAR     20   7  57 NW8       30.26F WCI  10
FORT CARSON    CLEAR     23  13  63 NW9       30.23F WCI  13
LIMON          PTCLDY     8   3  80 N6        30.25F WCI  -2
MONUMENT HILL  CLEAR     28   5  37 SW13      30.23F WCI  18
TRINIDAD       CLEAR     27  17  66 SW9       30.28F WCI  18
$$

COZ042>045-048>051-090-091-061100-
...NORTHEAST COLORADO...

CITY           SKY/WX    TMP DP  RH WIND       PRES   REMARKS
GREELEY ARPT   PTCLDY    25  16  68 SW3       30.23F
AKRON          CLEAR     27  18  69 W12       30.22F WCI  17
BURLINGTON     CLEAR     26  20  77 W9        30.25F WCI  17
WRAY           CLEAR     24  19  83 SW6       30.24F WCI  16
STERLING       CLEAR     21  19  93 SW6       30.24F WCI  14
HOLYOKE        CLEAR     27  19  74 W10       30.23F WCI  17
FORT MORGAN    CLEAR     20  17  88 W8        30.25S WCI  11
$$

COZ086-089-092>099-061100-
...SOUTHEAST COLORADO...

CITY           SKY/WX    TMP DP  RH WIND       PRES   REMARKS
PUEBLO         CLEAR     21  19  92 CALM      30.27F
LA JUNTA       CLEAR     27  22  81 W12       30.27F WCI  17
LAMAR          CLEAR     22  19  89 SW7       30.27F WCI  13
SPRINGFIELD      N/A     26  22  84 NW12      30.26S WCI  16
$$


USA.gov is the U.S. government's official web portal to all federal, state and local government web resources and services.